Year,Month,Day,Hour,Minute,Value (Times are PST for temperature in C)
2014,02,13,00,00,3.80
2014,02,13,00,01,3.80
2014,02,13,00,02,3.80
2014,02,13,00,03,3.80
2014,02,13,00,04,3.80
2014,02,13,00,05,3.80
2014,02,13,00,06,3.80
2014,02,13,00,07,3.80
2014,02,13,00,08,3.80
2014,02,13,00,09,3.70
2014,02,13,00,10,3.70
2014,02,13,00,11,3.70
2014,02,13,00,12,3.70
2014,02,13,00,13,3.70
2014,02,13,00,14,3.70
2014,02,13,00,15,3.70
2014,02,13,00,16,3.70
2014,02,13,00,17,3.70
2014,02,13,00,18,3.70
2014,02,13,00,19,3.70
2014,02,13,00,20,3.70
2014,02,13,00,21,3.70
2014,02,13,00,22,3.70
2014,02,13,00,23,3.70
2014,02,13,00,24,3.70
2014,02,13,00,25,3.60
2014,02,13,00,26,3.60
2014,02,13,00,27,3.60
2014,02,13,00,28,3.60
2014,02,13,00,29,3.60
2014,02,13,00,30,3.60
2014,02,13,00,31,3.60
2014,02,13,00,32,3.60
2014,02,13,00,33,3.60
2014,02,13,00,34,3.60
2014,02,13,00,35,3.60
2014,02,13,00,36,3.60
2014,02,13,00,37,3.60
2014,02,13,00,38,3.60
2014,02,13,00,39,3.60
2014,02,13,00,40,3.60
2014,02,13,00,41,3.60
2014,02,13,00,42,3.60
2014,02,13,00,43,3.60
2014,02,13,00,44,3.60
2014,02,13,00,45,3.60
2014,02,13,00,46,3.60
2014,02,13,00,47,3.60
2014,02,13,00,48,3.60
2014,02,13,00,49,3.60
2014,02,13,00,50,3.60
2014,02,13,00,51,3.60
2014,02,13,00,52,3.60
2014,02,13,00,53,3.60
2014,02,13,00,54,3.60
2014,02,13,00,55,3.70
2014,02,13,00,56,3.70
2014,02,13,00,57,3.70
2014,02,13,00,58,3.70
2014,02,13,00,59,3.70
2014,02,13,01,00,3.70
2014,02,13,01,01,3.70
2014,02,13,01,02,3.70
2014,02,13,01,03,3.70
2014,02,13,01,04,3.70
2014,02,13,01,05,3.70
2014,02,13,01,06,3.70
2014,02,13,01,07,3.70
2014,02,13,01,08,3.70
2014,02,13,01,09,3.70
2014,02,13,01,10,3.70
2014,02,13,01,11,3.70
2014,02,13,01,12,3.70
2014,02,13,01,13,3.70
2014,02,13,01,14,3.70
2014,02,13,01,15,3.70
2014,02,13,01,16,3.70
2014,02,13,01,17,3.70
2014,02,13,01,18,3.70
2014,02,13,01,19,3.60
2014,02,13,01,20,3.60
2014,02,13,01,21,3.60
2014,02,13,01,22,3.60
2014,02,13,01,23,3.60
2014,02,13,01,24,3.60
2014,02,13,01,25,3.60
2014,02,13,01,26,3.50
2014,02,13,01,27,3.50
2014,02,13,01,28,3.50
2014,02,13,01,29,3.50
2014,02,13,01,30,3.50
2014,02,13,01,31,3.50
2014,02,13,01,32,3.50
2014,02,13,01,33,3.50
2014,02,13,01,34,3.50
2014,02,13,01,35,3.40
2014,02,13,01,36,3.40
2014,02,13,01,37,3.40
2014,02,13,01,38,3.40
2014,02,13,01,39,3.40
2014,02,13,01,40,3.40
2014,02,13,01,41,3.30
2014,02,13,01,42,3.30
2014,02,13,01,43,3.30
2014,02,13,01,44,3.30
2014,02,13,01,45,3.30
2014,02,13,01,46,3.30
2014,02,13,01,47,3.30
2014,02,13,01,48,3.30
2014,02,13,01,49,3.30
2014,02,13,01,50,3.30
2014,02,13,01,51,3.30
2014,02,13,01,52,3.30
2014,02,13,01,53,3.30
2014,02,13,01,54,3.30
2014,02,13,01,55,3.30
2014,02,13,01,56,3.30
2014,02,13,01,57,3.30
2014,02,13,01,58,3.30
2014,02,13,01,59,3.30
2014,02,13,02,00,3.30
2014,02,13,02,01,3.30
2014,02,13,02,02,3.30
2014,02,13,02,03,3.40
2014,02,13,02,04,3.40
2014,02,13,02,05,3.40
2014,02,13,02,06,3.40
2014,02,13,02,07,3.40
2014,02,13,02,08,3.40
2014,02,13,02,09,3.40
2014,02,13,02,10,3.40
2014,02,13,02,11,3.40
2014,02,13,02,12,3.40
2014,02,13,02,13,3.40
2014,02,13,02,14,3.40
2014,02,13,02,15,3.40
2014,02,13,02,16,3.40
2014,02,13,02,17,3.30
2014,02,13,02,18,3.30
2014,02,13,02,19,3.30
2014,02,13,02,20,3.30
2014,02,13,02,21,3.30
2014,02,13,02,22,3.30
2014,02,13,02,23,3.40
2014,02,13,02,24,3.40
2014,02,13,02,25,3.40
2014,02,13,02,26,3.40
2014,02,13,02,27,3.40
2014,02,13,02,28,3.40
2014,02,13,02,29,3.40
2014,02,13,02,30,3.50
2014,02,13,02,31,3.50
2014,02,13,02,32,3.50
2014,02,13,02,33,3.40
2014,02,13,02,34,3.40
2014,02,13,02,35,3.30
2014,02,13,02,36,3.20
2014,02,13,02,37,3.20
2014,02,13,02,38,3.10
2014,02,13,02,39,3.10
2014,02,13,02,40,3.10
2014,02,13,02,41,3.10
2014,02,13,02,42,3.00
2014,02,13,02,43,2.90
2014,02,13,02,44,2.90
2014,02,13,02,45,2.90
2014,02,13,02,46,2.90
2014,02,13,02,47,2.90
2014,02,13,02,48,2.80
2014,02,13,02,49,2.80
2014,02,13,02,50,2.80
2014,02,13,02,51,2.80
2014,02,13,02,52,2.80
2014,02,13,02,53,2.80
2014,02,13,02,54,2.90
2014,02,13,02,55,2.90
2014,02,13,02,56,2.90
2014,02,13,02,57,2.90
2014,02,13,02,58,2.80
2014,02,13,02,59,2.80
2014,02,13,03,00,2.80
2014,02,13,03,01,2.80
2014,02,13,03,02,2.80
2014,02,13,03,03,2.90
2014,02,13,03,04,2.90
2014,02,13,03,05,2.90
2014,02,13,03,06,2.90
2014,02,13,03,07,2.90
2014,02,13,03,08,2.90
2014,02,13,03,09,2.90
2014,02,13,03,10,2.90
2014,02,13,03,11,2.90
2014,02,13,03,12,2.90
2014,02,13,03,13,2.90
2014,02,13,03,14,2.90
2014,02,13,03,15,2.90
2014,02,13,03,16,2.90
2014,02,13,03,17,3.00
2014,02,13,03,18,3.10
2014,02,13,03,19,3.10
2014,02,13,03,20,3.10
2014,02,13,03,21,3.10
2014,02,13,03,22,3.10
2014,02,13,03,23,3.20
2014,02,13,03,24,3.20
2014,02,13,03,25,3.20
2014,02,13,03,26,3.30
2014,02,13,03,27,3.30
2014,02,13,03,28,3.30
2014,02,13,03,29,3.30
2014,02,13,03,30,3.30
2014,02,13,03,31,3.30
2014,02,13,03,32,3.30
2014,02,13,03,33,3.30
2014,02,13,03,34,3.30
2014,02,13,03,35,3.40
2014,02,13,03,36,3.40
2014,02,13,03,37,3.40
2014,02,13,03,38,3.30
2014,02,13,03,39,3.30
2014,02,13,03,40,3.30
2014,02,13,03,41,3.20
2014,02,13,03,42,3.20
2014,02,13,03,43,3.20
2014,02,13,03,44,3.10
2014,02,13,03,45,3.10
2014,02,13,03,46,3.00
2014,02,13,03,47,3.00
2014,02,13,03,48,3.00
2014,02,13,03,49,2.90
2014,02,13,03,50,2.90
2014,02,13,03,51,2.90
2014,02,13,03,52,2.90
2014,02,13,03,53,3.00
2014,02,13,03,54,3.00
2014,02,13,03,55,3.10
2014,02,13,03,56,3.00
2014,02,13,03,57,3.00
2014,02,13,03,58,2.90
2014,02,13,03,59,2.90
2014,02,13,04,00,2.90
2014,02,13,04,01,2.90
2014,02,13,04,02,2.90
2014,02,13,04,03,2.90
2014,02,13,04,04,2.80
2014,02,13,04,05,2.90
2014,02,13,04,06,2.90
2014,02,13,04,07,2.90
2014,02,13,04,08,2.90
2014,02,13,04,09,2.90
2014,02,13,04,10,2.90
2014,02,13,04,11,3.10
2014,02,13,04,12,3.20
2014,02,13,04,13,3.20
2014,02,13,04,14,3.10
2014,02,13,04,15,3.10
2014,02,13,04,16,3.10
2014,02,13,04,17,3.00
2014,02,13,04,18,3.00
2014,02,13,04,19,3.00
2014,02,13,04,20,3.00
2014,02,13,04,21,3.00
2014,02,13,04,22,3.10
2014,02,13,04,23,3.10
2014,02,13,04,24,3.10
2014,02,13,04,25,3.10
2014,02,13,04,26,3.10
2014,02,13,04,27,3.10
2014,02,13,04,28,3.00
2014,02,13,04,29,3.00
2014,02,13,04,30,2.90
2014,02,13,04,31,2.90
2014,02,13,04,32,2.90
2014,02,13,04,33,2.90
2014,02,13,04,34,2.90
2014,02,13,04,35,2.90
2014,02,13,04,36,2.90
2014,02,13,04,37,2.90
2014,02,13,04,38,3.00
2014,02,13,04,39,3.00
2014,02,13,04,40,3.00
2014,02,13,04,41,2.90
2014,02,13,04,42,2.90
2014,02,13,04,43,2.80
2014,02,13,04,44,2.80
2014,02,13,04,45,2.70
2014,02,13,04,46,2.70
2014,02,13,04,47,2.80
2014,02,13,04,48,2.70
2014,02,13,04,49,2.70
2014,02,13,04,50,2.70
2014,02,13,04,51,2.70
2014,02,13,04,52,2.60
2014,02,13,04,53,2.50
2014,02,13,04,54,2.50
2014,02,13,04,55,2.60
2014,02,13,04,56,2.90
2014,02,13,04,57,3.20
2014,02,13,04,58,3.30
2014,02,13,04,59,3.40
2014,02,13,05,00,3.50
2014,02,13,05,01,3.60
2014,02,13,05,02,3.60
2014,02,13,05,03,3.60
2014,02,13,05,04,3.60
2014,02,13,05,05,3.50
2014,02,13,05,06,3.50
2014,02,13,05,07,3.40
2014,02,13,05,08,3.40
2014,02,13,05,09,3.30
2014,02,13,05,10,3.30
2014,02,13,05,11,3.50
2014,02,13,05,12,3.60
2014,02,13,05,13,3.70
2014,02,13,05,14,3.70
2014,02,13,05,15,3.70
2014,02,13,05,16,3.60
2014,02,13,05,17,3.50
2014,02,13,05,18,3.50
2014,02,13,05,19,3.40
2014,02,13,05,20,3.50
2014,02,13,05,21,3.50
2014,02,13,05,22,3.50
2014,02,13,05,23,3.50
2014,02,13,05,24,3.50
2014,02,13,05,25,3.50
2014,02,13,05,26,3.50
2014,02,13,05,27,3.40
2014,02,13,05,28,3.40
2014,02,13,05,29,3.50
2014,02,13,05,30,3.60
2014,02,13,05,31,3.70
2014,02,13,05,32,3.90
2014,02,13,05,33,4.10
2014,02,13,05,34,4.30
2014,02,13,05,35,4.50
2014,02,13,05,36,4.70
2014,02,13,05,37,4.90
2014,02,13,05,38,5.10
2014,02,13,05,39,5.30
2014,02,13,05,40,5.50
2014,02,13,05,41,5.70
2014,02,13,05,42,5.80
2014,02,13,05,43,6.00
2014,02,13,05,44,6.20
2014,02,13,05,45,6.30
2014,02,13,05,46,6.50
2014,02,13,05,47,6.50
2014,02,13,05,48,6.60
2014,02,13,05,49,6.60
2014,02,13,05,50,6.60
2014,02,13,05,51,6.60
2014,02,13,05,52,6.60
2014,02,13,05,53,6.60
2014,02,13,05,54,6.70
2014,02,13,05,55,6.70
2014,02,13,05,56,6.80
2014,02,13,05,57,6.80
2014,02,13,05,58,6.80
2014,02,13,05,59,6.80
2014,02,13,06,00,6.90
2014,02,13,06,01,6.90
2014,02,13,06,02,7.00
2014,02,13,06,03,7.00
2014,02,13,06,04,7.00
2014,02,13,06,05,6.90
2014,02,13,06,06,6.90
2014,02,13,06,07,6.90
2014,02,13,06,08,6.80
2014,02,13,06,09,6.80
2014,02,13,06,10,6.80
2014,02,13,06,11,6.80
2014,02,13,06,12,6.80
2014,02,13,06,13,6.70
2014,02,13,06,14,6.70
2014,02,13,06,15,6.80
2014,02,13,06,16,6.70
2014,02,13,06,17,6.70
2014,02,13,06,18,6.70
2014,02,13,06,19,6.70
2014,02,13,06,20,6.60
2014,02,13,06,21,6.60
2014,02,13,06,22,6.50
2014,02,13,06,23,6.50
2014,02,13,06,24,6.40
2014,02,13,06,25,6.40
2014,02,13,06,26,6.40
2014,02,13,06,27,6.40
2014,02,13,06,28,6.50
2014,02,13,06,29,6.50
2014,02,13,06,30,6.60
2014,02,13,06,31,6.60
2014,02,13,06,32,6.70
2014,02,13,06,33,6.70
2014,02,13,06,34,6.80
2014,02,13,06,35,6.80
2014,02,13,06,36,6.80
2014,02,13,06,37,6.90
2014,02,13,06,38,6.90
2014,02,13,06,39,6.90
2014,02,13,06,40,7.00
2014,02,13,06,41,6.90
2014,02,13,06,42,6.90
2014,02,13,06,43,7.00
2014,02,13,06,44,7.10
2014,02,13,06,45,7.10
2014,02,13,06,46,7.10
2014,02,13,06,47,7.00
2014,02,13,06,48,7.00
2014,02,13,06,49,7.00
2014,02,13,06,50,7.00
2014,02,13,06,51,7.00
2014,02,13,06,52,7.00
2014,02,13,06,53,6.90
2014,02,13,06,54,7.00
2014,02,13,06,55,7.10
2014,02,13,06,56,7.20
2014,02,13,06,57,7.20
2014,02,13,06,58,7.30
2014,02,13,06,59,7.30
2014,02,13,07,00,7.30
2014,02,13,07,01,7.30
2014,02,13,07,02,7.30
2014,02,13,07,03,7.30
2014,02,13,07,04,7.30
2014,02,13,07,05,7.30
2014,02,13,07,06,7.30
2014,02,13,07,07,7.20
2014,02,13,07,08,7.20
2014,02,13,07,09,7.10
2014,02,13,07,10,7.00
2014,02,13,07,11,6.90
2014,02,13,07,12,6.80
2014,02,13,07,13,6.70
2014,02,13,07,14,6.60
2014,02,13,07,15,6.50
2014,02,13,07,16,6.40
2014,02,13,07,17,6.30
2014,02,13,07,18,6.30
2014,02,13,07,19,6.20
2014,02,13,07,20,6.20
2014,02,13,07,21,6.30
2014,02,13,07,22,6.60
2014,02,13,07,23,6.70
2014,02,13,07,24,6.80
2014,02,13,07,25,6.90
2014,02,13,07,26,7.00
2014,02,13,07,27,7.00
2014,02,13,07,28,6.90
2014,02,13,07,29,6.90
2014,02,13,07,30,6.80
2014,02,13,07,31,6.80
2014,02,13,07,32,6.70
2014,02,13,07,33,6.70
2014,02,13,07,34,6.70
2014,02,13,07,35,6.70
2014,02,13,07,36,6.70
2014,02,13,07,37,6.70
2014,02,13,07,38,6.70
2014,02,13,07,39,6.70
2014,02,13,07,40,6.60
2014,02,13,07,41,6.60
2014,02,13,07,42,6.50
2014,02,13,07,43,6.60
2014,02,13,07,44,6.60
2014,02,13,07,45,6.70
2014,02,13,07,46,6.80
2014,02,13,07,47,6.90
2014,02,13,07,48,7.00
2014,02,13,07,49,7.10
2014,02,13,07,50,7.20
2014,02,13,07,51,7.20
2014,02,13,07,52,7.20
2014,02,13,07,53,7.20
2014,02,13,07,54,7.20
2014,02,13,07,55,7.30
2014,02,13,07,56,7.20
2014,02,13,07,57,7.20
2014,02,13,07,58,7.20
2014,02,13,07,59,7.20
2014,02,13,08,00,7.20
2014,02,13,08,01,7.20
2014,02,13,08,02,7.20
2014,02,13,08,03,7.20
2014,02,13,08,04,7.20
2014,02,13,08,05,7.20
2014,02,13,08,06,7.10
2014,02,13,08,07,7.20
2014,02,13,08,08,7.30
2014,02,13,08,09,7.50
2014,02,13,08,10,7.50
2014,02,13,08,11,7.60
2014,02,13,08,12,7.60
2014,02,13,08,13,7.70
2014,02,13,08,14,7.70
2014,02,13,08,15,7.80
2014,02,13,08,16,7.80
2014,02,13,08,17,7.80
2014,02,13,08,18,7.70
2014,02,13,08,19,7.60
2014,02,13,08,20,7.50
2014,02,13,08,21,7.50
2014,02,13,08,22,7.40
2014,02,13,08,23,7.30
2014,02,13,08,24,7.20
2014,02,13,08,25,7.20
2014,02,13,08,26,7.20
2014,02,13,08,27,7.20
2014,02,13,08,28,7.30
2014,02,13,08,29,7.30
2014,02,13,08,30,7.20
2014,02,13,08,31,7.40
2014,02,13,08,32,7.60
2014,02,13,08,33,7.80
2014,02,13,08,34,8.00
2014,02,13,08,35,7.90
2014,02,13,08,36,7.90
2014,02,13,08,37,7.80
2014,02,13,08,38,7.80
2014,02,13,08,39,7.70
2014,02,13,08,40,7.70
2014,02,13,08,41,7.70
2014,02,13,08,42,7.70
2014,02,13,08,43,7.70
2014,02,13,08,44,7.70
2014,02,13,08,45,7.60
2014,02,13,08,46,7.60
2014,02,13,08,47,7.70
2014,02,13,08,48,7.70
2014,02,13,08,49,7.70
2014,02,13,08,50,7.70
2014,02,13,08,51,7.70
2014,02,13,08,52,7.80
2014,02,13,08,53,7.80
2014,02,13,08,54,7.80
2014,02,13,08,55,7.80
2014,02,13,08,56,7.80
2014,02,13,08,57,7.90
2014,02,13,08,58,7.90
2014,02,13,08,59,7.90
2014,02,13,09,00,7.90
2014,02,13,09,01,7.90
2014,02,13,09,02,7.90
2014,02,13,09,03,7.90
2014,02,13,09,04,8.00
2014,02,13,09,05,8.00
2014,02,13,09,06,8.00
2014,02,13,09,07,8.00
2014,02,13,09,08,7.90
2014,02,13,09,09,7.90
2014,02,13,09,10,7.90
2014,02,13,09,11,7.90
2014,02,13,09,12,7.80
2014,02,13,09,13,7.80
2014,02,13,09,14,7.80
2014,02,13,09,15,7.70
2014,02,13,09,16,7.70
2014,02,13,09,17,7.70
2014,02,13,09,18,7.70
2014,02,13,09,19,7.70
2014,02,13,09,20,7.70
2014,02,13,09,21,7.70
2014,02,13,09,22,7.70
2014,02,13,09,23,7.80
2014,02,13,09,24,7.80
2014,02,13,09,25,7.80
2014,02,13,09,26,7.90
2014,02,13,09,27,8.00
2014,02,13,09,28,8.00
2014,02,13,09,29,8.10
2014,02,13,09,30,8.20
2014,02,13,09,31,8.30
2014,02,13,09,32,8.30
2014,02,13,09,33,8.30
2014,02,13,09,34,8.40
2014,02,13,09,35,8.40
2014,02,13,09,36,8.40
2014,02,13,09,37,8.40
2014,02,13,09,38,8.50
2014,02,13,09,39,8.50
2014,02,13,09,40,8.60
2014,02,13,09,41,8.60
2014,02,13,09,42,8.70
2014,02,13,09,43,8.70
2014,02,13,09,44,8.80
2014,02,13,09,45,8.90
2014,02,13,09,46,9.00
2014,02,13,09,47,9.10
2014,02,13,09,48,9.10
2014,02,13,09,49,9.20
2014,02,13,09,50,9.20
2014,02,13,09,51,9.20
2014,02,13,09,52,9.30
2014,02,13,09,53,9.30
2014,02,13,09,54,9.40
2014,02,13,09,55,9.40
2014,02,13,09,56,9.40
2014,02,13,09,57,9.40
2014,02,13,09,58,9.40
2014,02,13,09,59,9.50
2014,02,13,10,00,9.50
2014,02,13,10,01,9.60
2014,02,13,10,02,9.60
2014,02,13,10,03,9.60
2014,02,13,10,04,9.60
2014,02,13,10,05,9.60
2014,02,13,10,06,9.60
2014,02,13,10,07,9.60
2014,02,13,10,08,9.60
2014,02,13,10,09,9.60
2014,02,13,10,10,9.60
2014,02,13,10,11,9.60
2014,02,13,10,12,9.60
2014,02,13,10,13,9.60
2014,02,13,10,14,9.60
2014,02,13,10,15,9.60
2014,02,13,10,16,9.70
2014,02,13,10,17,9.70
2014,02,13,10,18,9.70
2014,02,13,10,19,9.80
2014,02,13,10,20,9.80
2014,02,13,10,21,9.80
2014,02,13,10,22,9.80
2014,02,13,10,23,9.90
2014,02,13,10,24,9.90
2014,02,13,10,25,9.80
2014,02,13,10,26,9.80
2014,02,13,10,27,9.70
2014,02,13,10,28,9.60
2014,02,13,10,29,9.60
2014,02,13,10,30,9.60
2014,02,13,10,31,9.50
2014,02,13,10,32,9.50
2014,02,13,10,33,9.50
2014,02,13,10,34,9.50
2014,02,13,10,35,9.40
2014,02,13,10,36,9.40
2014,02,13,10,37,9.30
2014,02,13,10,38,9.30
2014,02,13,10,39,9.30
2014,02,13,10,40,9.20
2014,02,13,10,41,9.20
2014,02,13,10,42,9.20
2014,02,13,10,43,9.20
2014,02,13,10,44,9.10
2014,02,13,10,45,9.00
2014,02,13,10,46,8.90
2014,02,13,10,47,8.80
2014,02,13,10,48,8.70
2014,02,13,10,49,8.70
2014,02,13,10,50,8.60
2014,02,13,10,51,8.50
2014,02,13,10,52,8.50
2014,02,13,10,53,8.40
2014,02,13,10,54,8.40
2014,02,13,10,55,8.30
2014,02,13,10,56,8.30
2014,02,13,10,57,8.30
2014,02,13,10,58,8.20
2014,02,13,10,59,8.20
2014,02,13,11,00,8.20
2014,02,13,11,01,8.20
2014,02,13,11,02,8.20
2014,02,13,11,03,8.10
2014,02,13,11,04,8.10
2014,02,13,11,05,8.10
2014,02,13,11,06,8.10
2014,02,13,11,07,8.10
2014,02,13,11,08,8.10
2014,02,13,11,09,8.10
2014,02,13,11,10,8.00
2014,02,13,11,11,8.00
2014,02,13,11,12,8.10
2014,02,13,11,13,8.10
2014,02,13,11,14,8.10
2014,02,13,11,15,8.10
2014,02,13,11,16,8.10
2014,02,13,11,17,8.20
2014,02,13,11,18,8.20
2014,02,13,11,19,8.30
2014,02,13,11,20,8.30
2014,02,13,11,21,8.30
2014,02,13,11,22,8.40
2014,02,13,11,23,8.40
2014,02,13,11,24,8.50
2014,02,13,11,25,8.50
2014,02,13,11,26,8.60
2014,02,13,11,27,8.60
2014,02,13,11,28,8.60
2014,02,13,11,29,8.60
2014,02,13,11,30,8.60
2014,02,13,11,31,8.60
2014,02,13,11,32,8.60
2014,02,13,11,33,8.60
2014,02,13,11,34,8.60
2014,02,13,11,35,8.60
2014,02,13,11,36,8.60
2014,02,13,11,37,8.60
2014,02,13,11,38,8.70
2014,02,13,11,39,8.70
2014,02,13,11,40,8.70
2014,02,13,11,41,8.70
2014,02,13,11,42,8.70
2014,02,13,11,43,8.70
2014,02,13,11,44,8.70
2014,02,13,11,45,8.70
2014,02,13,11,46,8.70
2014,02,13,11,47,8.70
2014,02,13,11,48,8.80
2014,02,13,11,49,8.80
2014,02,13,11,50,8.90
2014,02,13,11,51,9.00
2014,02,13,11,52,9.00
2014,02,13,11,53,9.10
2014,02,13,11,54,9.10
2014,02,13,11,55,9.20
2014,02,13,11,56,9.20
2014,02,13,11,57,9.20
2014,02,13,11,58,9.20
2014,02,13,11,59,9.20
2014,02,13,12,00,9.20
2014,02,13,12,01,9.20
2014,02,13,12,02,9.10
2014,02,13,12,03,9.10
2014,02,13,12,04,9.20
2014,02,13,12,05,9.20
2014,02,13,12,06,9.20
2014,02,13,12,07,9.10
2014,02,13,12,08,9.10
2014,02,13,12,09,9.10
2014,02,13,12,10,9.00
2014,02,13,12,11,9.00
2014,02,13,12,12,9.00
2014,02,13,12,13,8.90
2014,02,13,12,14,8.90
2014,02,13,12,15,8.90
2014,02,13,12,16,8.80
2014,02,13,12,17,8.80
2014,02,13,12,18,8.80
2014,02,13,12,19,8.80
2014,02,13,12,20,8.80
2014,02,13,12,21,8.80
2014,02,13,12,22,8.80
2014,02,13,12,23,8.80
2014,02,13,12,24,8.80
2014,02,13,12,25,8.80
2014,02,13,12,26,8.80
2014,02,13,12,27,8.80
2014,02,13,12,28,8.80
2014,02,13,12,29,8.80
2014,02,13,12,30,8.70
2014,02,13,12,31,8.70
2014,02,13,12,32,8.70
2014,02,13,12,33,8.70
2014,02,13,12,34,8.70
2014,02,13,12,35,8.70
2014,02,13,12,36,8.70
2014,02,13,12,37,8.70
2014,02,13,12,38,8.70
2014,02,13,12,39,8.70
2014,02,13,12,40,8.70
2014,02,13,12,41,8.70
2014,02,13,12,42,8.70
2014,02,13,12,43,8.70
2014,02,13,12,44,8.70
2014,02,13,12,45,8.70
2014,02,13,12,46,8.70
2014,02,13,12,47,8.70
2014,02,13,12,48,8.70
2014,02,13,12,49,8.80
2014,02,13,12,50,8.80
2014,02,13,12,51,8.80
2014,02,13,12,52,8.80
2014,02,13,12,53,8.90
2014,02,13,12,54,8.90
2014,02,13,12,55,9.00
2014,02,13,12,56,9.00
2014,02,13,12,57,9.10
2014,02,13,12,58,9.20
2014,02,13,12,59,9.30
2014,02,13,13,00,9.40
2014,02,13,13,01,9.50
2014,02,13,13,02,9.60
2014,02,13,13,03,9.70
2014,02,13,13,04,9.80
2014,02,13,13,05,9.90
2014,02,13,13,06,9.90
2014,02,13,13,07,9.90
2014,02,13,13,08,10.00
2014,02,13,13,09,10.00
2014,02,13,13,10,10.10
2014,02,13,13,11,10.20
2014,02,13,13,12,10.30
2014,02,13,13,13,10.40
2014,02,13,13,14,10.50
2014,02,13,13,15,10.50
2014,02,13,13,16,10.60
2014,02,13,13,17,10.60
2014,02,13,13,18,10.60
2014,02,13,13,19,10.60
2014,02,13,13,20,10.60
2014,02,13,13,21,10.70
2014,02,13,13,22,10.70
2014,02,13,13,23,10.80
2014,02,13,13,24,10.80
2014,02,13,13,25,10.80
2014,02,13,13,26,10.80
2014,02,13,13,27,10.80
2014,02,13,13,28,10.80
2014,02,13,13,29,10.80
2014,02,13,13,30,10.80
2014,02,13,13,31,10.90
2014,02,13,13,32,10.90
2014,02,13,13,33,10.80
2014,02,13,13,34,10.80
2014,02,13,13,35,10.70
2014,02,13,13,36,10.60
2014,02,13,13,37,10.40
2014,02,13,13,38,10.30
2014,02,13,13,39,10.20
2014,02,13,13,40,10.10
2014,02,13,13,41,10.10
2014,02,13,13,42,10.00
2014,02,13,13,43,10.00
2014,02,13,13,44,10.00
2014,02,13,13,45,10.00
2014,02,13,13,46,10.00
2014,02,13,13,47,10.00
2014,02,13,13,48,10.00
2014,02,13,13,49,10.00
2014,02,13,13,50,10.10
2014,02,13,13,51,10.10
2014,02,13,13,52,10.10
2014,02,13,13,53,10.10
2014,02,13,13,54,10.10
2014,02,13,13,55,10.10
2014,02,13,13,56,10.20
2014,02,13,13,57,10.20
2014,02,13,13,58,10.20
2014,02,13,13,59,10.30
2014,02,13,14,00,10.30
2014,02,13,14,01,10.30
2014,02,13,14,02,10.30
2014,02,13,14,03,10.40
2014,02,13,14,04,10.50
2014,02,13,14,05,10.50
2014,02,13,14,06,10.60
2014,02,13,14,07,10.70
2014,02,13,14,08,10.80
2014,02,13,14,09,10.90
2014,02,13,14,10,11.00
2014,02,13,14,11,11.00
2014,02,13,14,12,11.10
2014,02,13,14,13,11.20
2014,02,13,14,14,11.30
2014,02,13,14,15,11.30
2014,02,13,14,16,11.30
2014,02,13,14,17,11.20
2014,02,13,14,18,11.20
2014,02,13,14,19,11.20
2014,02,13,14,20,11.10
2014,02,13,14,21,11.00
2014,02,13,14,22,11.00
2014,02,13,14,23,10.90
2014,02,13,14,24,10.70
2014,02,13,14,25,10.60
2014,02,13,14,26,10.50
2014,02,13,14,27,10.40
2014,02,13,14,28,10.40
2014,02,13,14,29,10.30
2014,02,13,14,30,10.20
2014,02,13,14,31,10.10
2014,02,13,14,32,10.10
2014,02,13,14,33,10.00
2014,02,13,14,34,10.00
2014,02,13,14,35,10.00
2014,02,13,14,36,9.90
2014,02,13,14,37,9.90
2014,02,13,14,38,9.90
2014,02,13,14,39,9.90
2014,02,13,14,40,9.90
2014,02,13,14,41,9.90
2014,02,13,14,42,9.90
2014,02,13,14,43,10.00
2014,02,13,14,44,10.10
2014,02,13,14,45,10.10
2014,02,13,14,46,10.20
2014,02,13,14,47,10.30
2014,02,13,14,48,10.30
2014,02,13,14,49,10.30
2014,02,13,14,50,10.20
2014,02,13,14,51,10.20
2014,02,13,14,52,10.10
2014,02,13,14,53,10.10
2014,02,13,14,54,10.00
2014,02,13,14,55,10.00
2014,02,13,14,56,9.90
2014,02,13,14,57,9.90
2014,02,13,14,58,9.90
2014,02,13,14,59,9.90
2014,02,13,15,00,9.90
2014,02,13,15,01,10.00
2014,02,13,15,02,10.00
2014,02,13,15,03,10.00
2014,02,13,15,04,10.10
2014,02,13,15,05,10.10
2014,02,13,15,06,10.10
2014,02,13,15,07,10.10
2014,02,13,15,08,10.00
2014,02,13,15,09,9.90
2014,02,13,15,10,9.80
2014,02,13,15,11,9.80
2014,02,13,15,12,9.80
2014,02,13,15,13,9.90
2014,02,13,15,14,9.90
2014,02,13,15,15,10.00
2014,02,13,15,16,10.00
2014,02,13,15,17,10.10
2014,02,13,15,18,10.10
2014,02,13,15,19,10.20
2014,02,13,15,20,10.30
2014,02,13,15,21,10.30
2014,02,13,15,22,10.30
2014,02,13,15,23,10.40
2014,02,13,15,24,10.40
2014,02,13,15,25,10.50
2014,02,13,15,26,10.50
2014,02,13,15,27,10.60
2014,02,13,15,28,10.60
2014,02,13,15,29,10.60
2014,02,13,15,30,10.70
2014,02,13,15,31,10.70
2014,02,13,15,32,10.70
2014,02,13,15,33,10.60
2014,02,13,15,34,10.50
2014,02,13,15,35,10.40
2014,02,13,15,36,10.30
2014,02,13,15,37,10.20
2014,02,13,15,38,10.20
2014,02,13,15,39,10.20
2014,02,13,15,40,10.10
2014,02,13,15,41,10.10
2014,02,13,15,42,10.10
2014,02,13,15,43,10.10
2014,02,13,15,44,10.10
2014,02,13,15,45,10.10
2014,02,13,15,46,10.10
2014,02,13,15,47,10.10
2014,02,13,15,48,10.10
2014,02,13,15,49,10.10
2014,02,13,15,50,10.10
2014,02,13,15,51,10.00
2014,02,13,15,52,10.00
2014,02,13,15,53,10.00
2014,02,13,15,54,10.00
2014,02,13,15,55,9.90
2014,02,13,15,56,9.90
2014,02,13,15,57,9.90
2014,02,13,15,58,9.80
2014,02,13,15,59,9.80
2014,02,13,16,00,9.80
2014,02,13,16,01,9.80
2014,02,13,16,02,9.80
2014,02,13,16,03,9.80
2014,02,13,16,04,9.70
2014,02,13,16,05,9.70
2014,02,13,16,06,9.70
2014,02,13,16,07,9.60
2014,02,13,16,08,9.50
2014,02,13,16,09,9.40
2014,02,13,16,10,9.30
2014,02,13,16,11,9.20
2014,02,13,16,12,9.20
2014,02,13,16,13,9.20
2014,02,13,16,14,9.20
2014,02,13,16,15,9.20
2014,02,13,16,16,9.30
2014,02,13,16,17,9.30
2014,02,13,16,18,9.40
2014,02,13,16,19,9.40
2014,02,13,16,20,9.50
2014,02,13,16,21,9.60
2014,02,13,16,22,9.60
2014,02,13,16,23,9.70
2014,02,13,16,24,9.70
2014,02,13,16,25,9.70
2014,02,13,16,26,9.70
2014,02,13,16,27,9.70
2014,02,13,16,28,9.70
2014,02,13,16,29,9.70
2014,02,13,16,30,9.60
2014,02,13,16,31,9.60
2014,02,13,16,32,9.50
2014,02,13,16,33,9.40
2014,02,13,16,34,9.30
2014,02,13,16,35,9.30
2014,02,13,16,36,9.30
2014,02,13,16,37,9.20
2014,02,13,16,38,9.20
2014,02,13,16,39,9.20
2014,02,13,16,40,9.10
2014,02,13,16,41,9.10
2014,02,13,16,42,9.10
2014,02,13,16,43,9.00
2014,02,13,16,44,9.00
2014,02,13,16,45,9.00
2014,02,13,16,46,8.90
2014,02,13,16,47,8.90
2014,02,13,16,48,8.90
2014,02,13,16,49,8.80
2014,02,13,16,50,8.80
2014,02,13,16,51,8.80
2014,02,13,16,52,8.80
2014,02,13,16,53,8.80
2014,02,13,16,54,8.80
2014,02,13,16,55,8.70
2014,02,13,16,56,8.70
2014,02,13,16,57,8.70
2014,02,13,16,58,8.60
2014,02,13,16,59,8.60
2014,02,13,17,00,8.60
2014,02,13,17,01,8.60
2014,02,13,17,02,8.50
2014,02,13,17,03,8.50
2014,02,13,17,04,8.40
2014,02,13,17,05,8.40
2014,02,13,17,06,8.40
2014,02,13,17,07,8.40
2014,02,13,17,08,8.30
2014,02,13,17,09,8.30
2014,02,13,17,10,8.30
2014,02,13,17,11,8.20
2014,02,13,17,12,8.20
2014,02,13,17,13,8.20
2014,02,13,17,14,8.20
2014,02,13,17,15,8.10
2014,02,13,17,16,8.10
2014,02,13,17,17,8.10
2014,02,13,17,18,8.00
2014,02,13,17,19,8.00
2014,02,13,17,20,8.00
2014,02,13,17,21,7.90
2014,02,13,17,22,7.90
2014,02,13,17,23,7.90
2014,02,13,17,24,7.80
2014,02,13,17,25,7.80
2014,02,13,17,26,7.80
2014,02,13,17,27,7.80
2014,02,13,17,28,7.70
2014,02,13,17,29,7.70
2014,02,13,17,30,7.70
2014,02,13,17,31,7.60
2014,02,13,17,32,7.60
2014,02,13,17,33,7.60
2014,02,13,17,34,7.50
2014,02,13,17,35,7.50
2014,02,13,17,36,7.50
2014,02,13,17,37,7.50
2014,02,13,17,38,7.40
2014,02,13,17,39,7.40
2014,02,13,17,40,7.40
2014,02,13,17,41,7.40
2014,02,13,17,42,7.30
2014,02,13,17,43,7.30
2014,02,13,17,44,7.30
2014,02,13,17,45,7.30
2014,02,13,17,46,7.20
2014,02,13,17,47,7.20
2014,02,13,17,48,7.10
2014,02,13,17,49,7.10
2014,02,13,17,50,7.00
2014,02,13,17,51,7.00
2014,02,13,17,52,7.00
2014,02,13,17,53,6.90
2014,02,13,17,54,6.90
2014,02,13,17,55,6.90
2014,02,13,17,56,6.90
2014,02,13,17,57,7.00
2014,02,13,17,58,6.90
2014,02,13,17,59,6.90